Time,TemperatureF,DewpointF,PressureIn,WindDirection,WindDirectionDegrees,WindSpeedMPH,WindSpeedGustMPH,Humidity,HourlyPrecipIn,Conditions,Clouds,dailyrainin,SoftwareType,DateUTC
2013-06-01 00:02:00,78.0,23.0,29.87,WNW,298,0.0,0.0,13,0.00,,,0.00,,2013-06-01 05:02:00,
2013-06-01 00:12:00,78.0,23.0,29.87,WNW,298,0.0,0.0,13,0.00,,,0.00,,2013-06-01 05:12:00,
2013-06-01 00:22:00,76.0,22.0,29.85,WNW,298,0.0,0.0,13,0.00,,,0.00,,2013-06-01 05:22:00,
2013-06-01 00:32:00,76.0,22.0,29.85,WNW,298,0.0,0.0,13,0.00,,,0.00,,2013-06-01 05:32:00,
2013-06-01 00:43:00,75.0,21.0,29.85,WNW,292,0.0,0.0,13,0.00,,,0.00,,2013-06-01 05:43:00,
2013-06-01 00:52:00,75.0,21.0,29.85,WNW,292,0.0,0.0,13,0.00,,,0.00,,2013-06-01 05:52:00,
2013-06-01 01:01:00,75.0,21.0,29.85,WNW,292,0.0,0.0,13,0.00,,,0.00,,2013-06-01 06:01:00,
2013-06-01 01:12:00,75.0,23.0,29.85,WNW,294,0.0,0.0,14,0.00,,,0.00,,2013-06-01 06:12:00,
2013-06-01 01:22:00,75.0,23.0,29.85,WNW,294,0.0,0.0,14,0.00,,,0.00,,2013-06-01 06:22:00,
2013-06-01 01:32:00,75.0,23.0,29.85,WNW,294,0.0,0.0,14,0.00,,,0.00,,2013-06-01 06:32:00,
2013-06-01 01:42:00,76.0,22.0,29.85,WNW,296,0.0,0.0,13,0.00,,,0.00,,2013-06-01 06:42:00,
2013-06-01 01:52:00,76.0,22.0,29.85,WNW,296,0.0,0.0,13,0.00,,,0.00,,2013-06-01 06:52:00,
2013-06-01 02:01:00,76.0,22.0,29.85,WNW,296,0.0,0.0,13,0.00,,,0.00,,2013-06-01 07:01:00,
2013-06-01 02:11:00,76.0,22.0,29.85,WNW,296,0.0,0.0,13,0.00,,,0.00,,2013-06-01 07:11:00,
2013-06-01 02:21:00,76.0,22.0,29.85,WNW,296,0.0,0.0,13,0.00,,,0.00,,2013-06-01 07:21:00,
2013-06-01 02:31:00,76.0,22.0,29.85,WNW,296,0.0,0.0,13,0.00,,,0.00,,2013-06-01 07:31:00,
2013-06-01 02:42:00,76.0,22.0,29.85,WNW,291,0.0,0.0,13,0.00,,,0.00,,2013-06-01 07:42:00,
2013-06-01 02:52:00,76.0,22.0,29.85,WNW,291,0.0,0.0,13,0.00,,,0.00,,2013-06-01 07:52:00,
2013-06-01 03:02:00,76.0,22.0,29.85,WNW,291,0.0,0.0,13,0.00,,,0.00,,2013-06-01 08:02:00,
2013-06-01 03:11:00,75.0,23.0,29.85,WNW,295,0.0,0.0,14,0.00,,,0.00,,2013-06-01 08:11:00,
2013-06-01 03:21:00,75.0,23.0,29.85,WNW,295,0.0,0.0,14,0.00,,,0.00,,2013-06-01 08:21:00,
2013-06-01 03:32:00,75.0,23.0,29.85,WNW,295,0.0,0.0,14,0.00,,,0.00,,2013-06-01 08:32:00,
2013-06-01 03:42:00,73.0,21.0,29.86,WNW,295,0.0,0.0,14,0.00,,,0.00,,2013-06-01 08:42:00,
2013-06-01 03:52:00,73.0,21.0,29.86,WNW,295,0.0,0.0,14,0.00,,,0.00,,2013-06-01 08:52:00,
2013-06-01 04:01:00,73.0,21.0,29.86,WNW,295,0.0,0.0,14,0.00,,,0.00,,2013-06-01 09:01:00,
2013-06-01 04:12:00,73.0,21.0,29.86,WNW,295,0.0,0.0,14,0.00,,,0.00,,2013-06-01 09:12:00,
2013-06-01 04:21:00,72.0,22.0,29.87,North,360,0.0,0.0,15,0.00,,,0.00,,2013-06-01 09:21:00,
2013-06-01 04:33:00,72.0,22.0,29.87,North,360,0.0,0.0,15,0.00,,,0.00,,2013-06-01 09:33:00,
2013-06-01 04:43:00,72.0,22.0,29.87,North,360,0.0,0.0,15,0.00,,,0.00,,2013-06-01 09:43:00,
2013-06-01 04:53:00,70.0,22.0,29.86,North,360,0.0,0.0,16,0.00,,,0.00,,2013-06-01 09:53:00,
2013-06-01 05:02:00,70.0,22.0,29.86,North,360,0.0,0.0,16,0.00,,,0.00,,2013-06-01 10:02:00,
2013-06-01 05:13:00,70.0,22.0,29.86,North,360,0.0,0.0,16,0.00,,,0.00,,2013-06-01 10:13:00,
2013-06-01 05:22:00,70.0,23.0,29.87,North,1,0.0,0.0,17,0.00,,,0.00,,2013-06-01 10:22:00,
2013-06-01 05:32:00,70.0,23.0,29.87,North,1,0.0,0.0,17,0.00,,,0.00,,2013-06-01 10:32:00,
2013-06-01 05:42:00,69.0,24.0,29.87,North,1,0.0,0.0,18,0.00,,,0.00,,2013-06-01 10:42:00,
2013-06-01 05:52:00,69.0,24.0,29.87,North,1,0.0,0.0,18,0.00,,,0.00,,2013-06-01 10:52:00,
2013-06-01 06:02:00,69.0,24.0,29.87,North,1,0.0,0.0,18,0.00,,,0.00,,2013-06-01 11:02:00,
2013-06-01 06:11:00,69.0,24.0,29.87,North,1,0.0,0.0,18,0.00,,,0.00,,2013-06-01 11:11:00,
2013-06-01 06:21:00,68.0,24.0,29.88,North,1,0.0,0.0,19,0.00,,,0.00,,2013-06-01 11:21:00,
2013-06-01 06:32:00,68.0,24.0,29.88,North,1,0.0,0.0,19,0.00,,,0.00,,2013-06-01 11:32:00,
2013-06-01 06:42:00,70.0,27.0,29.89,NNW,336,0.0,2.0,20,0.00,,,0.00,,2013-06-01 11:42:00,
2013-06-01 06:52:00,70.0,27.0,29.89,NNW,336,0.0,2.0,20,0.00,,,0.00,,2013-06-01 11:52:00,
2013-06-01 07:01:00,70.0,27.0,29.89,NNW,336,0.0,2.0,20,0.00,,,0.00,,2013-06-01 12:01:00,
2013-06-01 07:12:00,70.0,27.0,29.89,NNW,336,0.0,2.0,20,0.00,,,0.00,,2013-06-01 12:12:00,
2013-06-01 07:21:00,75.0,26.0,29.91,NNW,329,0.0,5.0,16,0.00,,,0.00,,2013-06-01 12:21:00,
2013-06-01 07:32:00,75.0,26.0,29.91,NNW,329,0.0,5.0,16,0.00,,,0.00,,2013-06-01 12:32:00,
2013-06-01 07:42:00,76.0,20.0,29.89,NNW,332,2.0,8.0,12,0.00,,,0.00,,2013-06-01 12:42:00,
2013-06-01 07:52:00,76.0,20.0,29.89,NNW,332,2.0,8.0,12,0.00,,,0.00,,2013-06-01 12:52:00,
2013-06-01 08:01:00,76.0,20.0,29.89,NNW,332,2.0,8.0,12,0.00,,,0.00,,2013-06-01 13:01:00,
2013-06-01 08:11:00,76.0,20.0,29.89,NNW,332,2.0,8.0,12,0.00,,,0.00,,2013-06-01 13:11:00,
2013-06-01 08:22:00,76.0,20.0,29.92,NNW,344,5.0,18.0,12,0.00,,,0.00,,2013-06-01 13:22:00,
2013-06-01 08:32:00,76.0,20.0,29.92,NNW,344,5.0,18.0,12,0.00,,,0.00,,2013-06-01 13:32:00,
2013-06-01 08:42:00,77.0,20.0,29.91,ENE,75,0.0,2.0,12,0.00,,,0.00,,2013-06-01 13:42:00,
2013-06-01 08:52:00,77.0,20.0,29.91,ENE,75,0.0,2.0,12,0.00,,,0.00,,2013-06-01 13:52:00,
2013-06-01 09:02:00,77.0,20.0,29.91,ENE,75,0.0,2.0,12,0.00,,,0.00,,2013-06-01 14:02:00,
2013-06-01 09:11:00,77.0,20.0,29.91,ENE,75,0.0,2.0,12,0.00,,,0.00,,2013-06-01 14:11:00,
2013-06-01 09:21:00,78.0,19.0,29.94,NNE,13,1.0,2.0,11,0.00,,,0.00,,2013-06-01 14:21:00,
2013-06-01 09:32:00,78.0,19.0,29.94,NNE,13,1.0,2.0,11,0.00,,,0.00,,2013-06-01 14:32:00,
2013-06-01 09:42:00,78.0,19.0,29.94,NNE,13,1.0,2.0,11,0.00,,,0.00,,2013-06-01 14:42:00,
2013-06-01 09:52:00,80.0,21.0,29.93,North,360,0.0,2.0,11,0.00,,,0.00,,2013-06-01 14:52:00,
2013-06-01 10:01:00,80.0,21.0,29.93,North,360,0.0,2.0,11,0.00,,,0.00,,2013-06-01 15:01:00,
2013-06-01 10:11:00,80.0,21.0,29.93,North,360,0.0,2.0,11,0.00,,,0.00,,2013-06-01 15:11:00,
2013-06-01 10:21:00,81.0,24.0,29.96,NE,51,0.0,6.0,12,0.00,,,0.00,,2013-06-01 15:21:00,
2013-06-01 10:33:00,81.0,24.0,29.96,NE,51,0.0,6.0,12,0.00,,,0.00,,2013-06-01 15:33:00,
2013-06-01 10:43:00,81.0,24.0,29.96,NE,51,0.0,6.0,12,0.00,,,0.00,,2013-06-01 15:43:00,
2013-06-01 10:53:00,83.0,25.0,29.93,North,360,5.0,18.0,12,0.00,,,0.00,,2013-06-01 15:53:00,
2013-06-01 11:03:00,83.0,25.0,29.93,North,360,5.0,18.0,12,0.00,,,0.00,,2013-06-01 16:03:00,
2013-06-01 11:12:00,83.0,25.0,29.93,North,360,5.0,18.0,12,0.00,,,0.00,,2013-06-01 16:12:00,
2013-06-01 11:23:00,84.0,24.0,29.96,North,6,1.0,5.0,11,0.00,,,0.00,,2013-06-01 16:23:00,
2013-06-01 11:33:00,84.0,24.0,29.96,North,6,1.0,5.0,11,0.00,,,0.00,,2013-06-01 16:33:00,
2013-06-01 11:42:00,86.0,23.0,29.96,NE,56,1.0,7.0,10,0.00,,,0.00,,2013-06-01 16:42:00,
2013-06-01 11:52:00,86.0,23.0,29.96,NE,56,1.0,7.0,10,0.00,,,0.00,,2013-06-01 16:52:00,
2013-06-01 12:02:00,86.0,23.0,29.96,NE,56,1.0,7.0,10,0.00,,,0.00,,2013-06-01 17:02:00,
2013-06-01 12:12:00,86.0,23.0,29.96,NE,56,1.0,7.0,10,0.00,,,0.00,,2013-06-01 17:12:00,
2013-06-01 12:22:00,86.0,21.0,29.95,North,4,2.0,7.0,9,0.00,,,0.00,,2013-06-01 17:22:00,
2013-06-01 12:32:00,86.0,21.0,29.95,North,4,2.0,7.0,9,0.00,,,0.00,,2013-06-01 17:32:00,
2013-06-01 12:42:00,86.0,21.0,29.95,North,4,2.0,7.0,9,0.00,,,0.00,,2013-06-01 17:42:00,
2013-06-01 12:52:00,88.0,25.0,29.97,SE,126,0.0,6.0,10,0.00,,,0.00,,2013-06-01 17:52:00,
2013-06-01 13:01:00,88.0,25.0,29.97,SE,126,0.0,6.0,10,0.00,,,0.00,,2013-06-01 18:01:00,
2013-06-01 13:12:00,88.0,25.0,29.97,SE,126,0.0,6.0,10,0.00,,,0.00,,2013-06-01 18:12:00,
2013-06-01 13:21:00,88.0,22.0,29.95,North,1,1.0,14.0,9,0.00,,,0.00,,2013-06-01 18:21:00,
2013-06-01 13:32:00,88.0,22.0,29.95,North,1,1.0,14.0,9,0.00,,,0.00,,2013-06-01 18:32:00,
2013-06-01 13:42:00,88.0,22.0,29.95,North,1,1.0,14.0,9,0.00,,,0.00,,2013-06-01 18:42:00,
2013-06-01 13:52:00,88.0,31.0,29.96,SSW,193,0.0,5.0,13,0.00,,,0.00,,2013-06-01 18:52:00,
2013-06-01 14:01:00,88.0,31.0,29.96,SSW,193,0.0,5.0,13,0.00,,,0.00,,2013-06-01 19:01:00,
2013-06-01 14:11:00,89.0,34.0,29.96,ENE,75,0.0,11.0,14,0.00,,,0.00,,2013-06-01 19:11:00,
2013-06-01 14:21:00,89.0,34.0,29.96,ENE,75,0.0,11.0,14,0.00,,,0.00,,2013-06-01 19:21:00,
2013-06-01 14:32:00,89.0,34.0,29.96,ENE,75,0.0,11.0,14,0.00,,,0.00,,2013-06-01 19:32:00,
2013-06-01 14:42:00,89.0,34.0,29.96,ENE,75,0.0,11.0,14,0.00,,,0.00,,2013-06-01 19:42:00,
2013-06-01 14:52:00,90.0,36.0,29.96,East,83,1.0,12.0,15,0.00,,,0.00,,2013-06-01 19:52:00,
2013-06-01 15:01:00,90.0,36.0,29.96,East,83,1.0,12.0,15,0.00,,,0.00,,2013-06-01 20:01:00,
2013-06-01 15:12:00,90.0,36.0,29.96,East,83,1.0,12.0,15,0.00,,,0.00,,2013-06-01 20:12:00,
2013-06-01 15:21:00,89.0,37.0,29.95,ENE,62,0.0,12.0,16,0.00,,,0.00,,2013-06-01 20:21:00,
2013-06-01 15:32:00,89.0,37.0,29.95,ENE,62,0.0,12.0,16,0.00,,,0.00,,2013-06-01 20:32:00,
2013-06-01 15:42:00,90.0,38.0,29.96,SSE,155,2.0,13.0,16,0.00,,,0.00,,2013-06-01 20:42:00,
2013-06-01 15:52:00,90.0,38.0,29.96,SSE,155,2.0,13.0,16,0.00,,,0.00,,2013-06-01 20:52:00,
2013-06-01 16:01:00,90.0,38.0,29.96,SSE,155,2.0,13.0,16,0.00,,,0.00,,2013-06-01 21:01:00,
2013-06-01 16:11:00,91.0,40.0,29.95,East,88,2.0,13.0,17,0.00,,,0.00,,2013-06-01 21:11:00,
2013-06-01 16:21:00,91.0,40.0,29.95,East,88,2.0,13.0,17,0.00,,,0.00,,2013-06-01 21:21:00,
2013-06-01 16:33:00,91.0,40.0,29.95,East,88,2.0,13.0,17,0.00,,,0.00,,2013-06-01 21:33:00,
2013-06-01 16:43:00,91.0,40.0,29.95,East,88,2.0,13.0,17,0.00,,,0.00,,2013-06-01 21:43:00,
2013-06-01 16:53:00,91.0,39.0,29.93,North,360,4.0,11.0,16,0.00,,,0.00,,2013-06-01 21:53:00,
2013-06-01 17:03:00,91.0,39.0,29.93,North,360,4.0,11.0,16,0.00,,,0.00,,2013-06-01 22:03:00,
2013-06-01 17:12:00,91.0,39.0,29.93,NNE,18,1.0,13.0,16,0.00,,,0.00,,2013-06-01 22:12:00,
2013-06-01 17:23:00,91.0,39.0,29.93,NNE,18,1.0,13.0,16,0.00,,,0.00,,2013-06-01 22:23:00,
2013-06-01 17:33:00,91.0,39.0,29.93,NNE,18,1.0,13.0,16,0.00,,,0.00,,2013-06-01 22:33:00,
2013-06-01 17:42:00,91.0,40.0,29.92,SE,141,0.0,12.0,17,0.00,,,0.00,,2013-06-01 22:42:00,
2013-06-01 17:53:00,91.0,40.0,29.92,SE,141,0.0,12.0,17,0.00,,,0.00,,2013-06-01 22:53:00,
2013-06-01 18:02:00,91.0,40.0,29.92,SE,141,0.0,12.0,17,0.00,,,0.00,,2013-06-01 23:02:00,
2013-06-01 18:11:00,90.0,38.0,29.92,SE,133,2.0,13.0,16,0.00,,,0.00,,2013-06-01 23:11:00,
2013-06-01 18:22:00,90.0,38.0,29.92,SE,133,2.0,13.0,16,0.00,,,0.00,,2013-06-01 23:22:00,
2013-06-01 18:32:00,90.0,38.0,29.92,SE,133,2.0,13.0,16,0.00,,,0.00,,2013-06-01 23:32:00,
2013-06-01 18:42:00,90.0,38.0,29.92,SE,133,2.0,13.0,16,0.00,,,0.00,,2013-06-01 23:42:00,
2013-06-01 18:52:00,89.0,38.0,29.92,ESE,109,1.0,16.0,17,0.00,,,0.00,,2013-06-01 23:52:00,
2013-06-01 19:02:00,89.0,38.0,29.92,ESE,109,1.0,16.0,17,0.00,,,0.00,,2013-06-02 00:02:00,
2013-06-01 19:11:00,89.0,38.0,29.92,ESE,109,1.0,16.0,17,0.00,,,0.00,,2013-06-02 00:11:00,
2013-06-01 19:21:00,89.0,40.0,29.91,East,86,0.0,12.0,18,0.00,,,0.00,,2013-06-02 00:21:00,
2013-06-01 19:32:00,89.0,40.0,29.91,East,86,0.0,12.0,18,0.00,,,0.00,,2013-06-02 00:32:00,
2013-06-01 19:42:00,89.0,40.0,29.91,East,86,0.0,12.0,18,0.00,,,0.00,,2013-06-02 00:42:00,
2013-06-01 19:52:00,88.0,41.0,29.91,ESE,113,0.0,2.0,19,0.00,,,0.00,,2013-06-02 00:52:00,
2013-06-01 20:01:00,88.0,41.0,29.91,ESE,113,0.0,2.0,19,0.00,,,0.00,,2013-06-02 01:01:00,
2013-06-01 20:11:00,88.0,41.0,29.91,ESE,113,0.0,2.0,19,0.00,,,0.00,,2013-06-02 01:11:00,
2013-06-01 20:21:00,86.0,45.0,29.93,East,100,2.0,8.0,24,0.00,,,0.00,,2013-06-02 01:21:00,
2013-06-01 20:32:00,86.0,45.0,29.93,East,100,2.0,8.0,24,0.00,,,0.00,,2013-06-02 01:32:00,
2013-06-01 20:42:00,86.0,45.0,29.93,East,100,2.0,8.0,24,0.00,,,0.00,,2013-06-02 01:42:00,
2013-06-01 20:52:00,83.0,47.0,29.94,SSE,155,0.0,14.0,28,0.00,,,0.00,,2013-06-02 01:52:00,
2013-06-01 21:01:00,83.0,47.0,29.94,SSE,155,0.0,14.0,28,0.00,,,0.00,,2013-06-02 02:01:00,
2013-06-01 21:12:00,83.0,47.0,29.94,SSE,155,0.0,14.0,28,0.00,,,0.00,,2013-06-02 02:12:00,
2013-06-01 21:21:00,82.0,47.0,29.96,South,181,0.0,11.0,29,0.00,,,0.00,,2013-06-02 02:21:00,
2013-06-01 21:32:00,82.0,47.0,29.96,South,181,0.0,11.0,29,0.00,,,0.00,,2013-06-02 02:32:00,
2013-06-01 21:42:00,82.0,47.0,29.96,South,181,0.0,11.0,29,0.00,,,0.00,,2013-06-02 02:42:00,
2013-06-01 21:52:00,79.0,59.0,29.98,SSW,195,3.0,17.0,51,0.00,,,0.00,,2013-06-02 02:52:00,
2013-06-01 22:02:00,79.0,59.0,29.98,SSW,195,3.0,17.0,51,0.00,,,0.00,,2013-06-02 03:02:00,
2013-06-01 22:11:00,79.0,59.0,29.98,SSW,195,3.0,17.0,51,0.00,,,0.00,,2013-06-02 03:11:00,
2013-06-01 22:21:00,76.0,52.0,30.00,SSE,147,2.0,16.0,43,0.00,,,0.00,,2013-06-02 03:21:00,
2013-06-01 22:33:00,76.0,52.0,30.00,SSE,147,2.0,16.0,43,0.00,,,0.00,,2013-06-02 03:33:00,
2013-06-01 22:43:00,76.0,52.0,30.00,SSE,147,2.0,16.0,43,0.00,,,0.00,,2013-06-02 03:43:00,
2013-06-01 22:53:00,76.0,56.0,30.02,NW,325,0.0,7.0,50,0.00,,,0.00,,2013-06-02 03:53:00,
2013-06-01 23:02:00,76.0,56.0,30.02,NW,325,0.0,7.0,50,0.00,,,0.00,,2013-06-02 04:02:00,
2013-06-01 23:13:00,76.0,56.0,30.02,NW,325,0.0,7.0,50,0.00,,,0.00,,2013-06-02 04:13:00,
2013-06-01 23:23:00,74.0,57.0,30.02,ESE,113,3.0,13.0,55,0.00,,,0.00,,2013-06-02 04:23:00,
2013-06-01 23:33:00,74.0,57.0,30.02,ESE,113,3.0,13.0,55,0.00,,,0.00,,2013-06-02 04:33:00,
2013-06-01 23:42:00,74.0,57.0,30.02,ESE,113,3.0,13.0,55,0.00,,,0.00,,2013-06-02 04:42:00,
2013-06-01 23:53:00,74.0,59.0,30.02,SE,130,3.0,14.0,60,0.00,,,0.00,,2013-06-02 04:53:00,